Regional Weather Roundup
Issued by NWS

Home | Current Version | Previous Version | Text Only | Print | Product List | Glossary On
Versions: 1 2 3 4 5 6 7 8 9 10 11 12 13 14 15 16 17 18 19 20 21 22 23 24 25 26 27 28 29 30 31 32 33 34 35 36 37 38 39 40 41 42 43 44 45 46 47 48 49 50
000
ASCA44 KEWX 300420
RWRMX

LATIN AMERICA AND CARIBBEAN REGIONAL WEATHER ROUNDUP
NATIONAL WEATHER SERVICE AUSTIN/SAN ANTONIO TX
1000 PM CST THU JAN 29 2015

NOTE: "FAIR" INDICATED FEW OR NO CLOUDS BELOW 12,000 FEET WITH NO
SIGNIFICANT WEATHER AND/OR OBSTRUCTIONS TO VISIBILITY.

BAJA CALIFORNIA

CITY           SKY/WX    TMP DP  RH WIND       PRES   REMARKS
LA PAZ         CLOUDY    70  63  78 CALM      29.92
MEXICALI       CLOUDY    64  52  63 NE3       29.99
S.J. DEL CABO  MOCLDY    72  55  56 NW6       29.91R
TIJUANA        CLOUDY    59  52  77 CALM      30.05R

NORTHWESTERN MEXICO

CITY           SKY/WX    TMP DP  RH WIND       PRES   REMARKS
CULIACAN       MOCLDY    70  64  83 CALM      29.85
DURANGO        MOCLDY    59  34  38 NW5       30.27R
HERMOSILLO     CLOUDY    73  57  56 SW16      29.99
CD. JUAREZ     CLOUDY    50  39  66 E23       30.30  WCI  43
LOS MOCHIS     CLOUDY    70  57  64 NW17      29.88R
OBREGON          N/A    N/A N/A N/A MISG        N/A

NORTHEASTERN MEXICO

CITY           SKY/WX    TMP DP  RH WIND       PRES   REMARKS
CHIHUAHUA      CLOUDY    59  39  47 N16       30.29
MONTERREY      MOCLDY    63  52  67 CALM      30.23R
REYNOSA        PTCLDY    64  59  82 E5        30.25
SALTILLO       PTCLDY    55  46  71 N9        30.32R
TORREON        MOCLDY    70  39  32 NE13      30.17R
CD. VICTORIA   PTCLDY    61  52  72 SE6       30.23R

WESTERN MEXICO

CITY           SKY/WX    TMP DP  RH WIND       PRES   REMARKS
AGUASCALIENTES MOCLDY    59  27  29 NE6G17    30.26
DEL BAJIO      CLEAR     61  34  36 E9        30.33R
GUADALAJARA    PTCLDY    59  37  44 CALM      30.14
MAZATLAN       PTCLDY    66  63  88 W12       29.85R
P. VALLARTA    CLOUDY    77  72  83 SW5       29.87R
ZACATECAS      CLEAR     61  30  31 SE13      30.29R

CENTRAL MEXICO

CITY           SKY/WX    TMP DP  RH WIND       PRES   REMARKS
MEXICO CITY    PTCLDY    57  32  38 N7        30.38R
MORELIA        CLEAR     63  39  42 NE9       30.23
PUEBLA         CLEAR     46  30  53 N7        30.36R WCI  43
QUERETARO      PTCLDY    55  41  58 SE6       30.37R
S. LUIS POTOSI MOCLDY    55  37  50 CALM      30.32R
TAMPICO        PTCLDY    64  61  88 E5        30.22R
TOLUCA         PTCLDY    48  30  49 E8        30.40R WCI  45

SOUTHERN MEXICO

CITY           SKY/WX    TMP DP  RH WIND       PRES   REMARKS
ACAPULCO       PTCLDY    79  72  78 W2        29.92R
B. DE HUATULCO MOCLDY    72  66  83 CALM      29.98
OAXACA         CLEAR     57  27  30 N7        30.27R
VERACRUZ       CLEAR     63  59  88 NW6       30.20R

YUCATAN PENINSULA

CITY           SKY/WX    TMP DP  RH WIND       PRES   REMARKS
CAMPECHE       PTCLDY    70  61  73 N12G23    30.12R
CANCUN         PTCLDY    63  59  88 NW6       30.16S
CHETUMAL       MOCLDY    72  64  78 CALM      30.12R
COZUMEL        PTCLDY    61  59  94 CALM      30.16S
MERIDA         CLEAR     68  59  73 NE9       30.18R
MINATITLAN     CLEAR     70  66  88 N12       30.13
TAPACHULA      CLEAR     75  70  83 CALM      29.92R
TUX. GUTIERREZ PTCLDY    63  55  77 NW3       30.10R
VILLAHERMOSA   CLEAR     70  66  88 NE7       30.15R

CENTRAL AMERICA

CITY           SKY/WX    TMP DP  RH WIND       PRES   REMARKS
MANAGUA        PTCLDY    79  61  53 E12       29.89S

CARIBBEAN

CITY           SKY/WX    TMP DP  RH WIND       PRES   REMARKS
ARUBA          PTCLDY    79  73  83 E16       29.89S
CURACAO        PTCLDY    79  73  83 E12       29.92S
KINGSTON       PTCLDY    79  70  73 NE3       29.97F
NASSAU         MOCLDY    68  54  60 E3        30.20
SAN JUAN       PTCLDY    75  72  88 NE9       30.01F
SANTO DOMINGO  PTCLDY    72  70  94 N7        30.03S
ST. MAARTEN    PTCLDY    77  70  78 E6        29.97F

$$



USA.gov is the U.S. government's official web portal to all federal, state and local government web resources and services.